Frederick, MD

2:19 AM EDT on September 26, 2017 (GMT -0400)
Frederick Municipal

Weather History for KFDK - July, 2013

Change the Weather History Date:

Tuesday, July 9, 2013

  Actual Average (KHGR) Record (KHGR)
Temperature  
Mean Temperature 76 °F -  
Max Temperature 84 °F 82 °F 97 °F (1999)
Min Temperature 69 °F 62 °F 57 °F (2000)
Cooling Degree Days 12    
Growing Degree Days 26 (Base 50)    
Moisture  
Dew Point 71 °F    
Average Humidity 91    
Maximum Humidity 100    
Minimum Humidity 70    
Precipitation  
Precipitation 0.00 in - - ()
Sea Level Pressure  
Sea Level Pressure 30.10 in    
Wind  
Wind Speed 3 mph (South)    
Max Wind Speed 8 mph    
Max Gust Speed -    
Visibility 9 miles    
Events Rain    
Averages and records for this station are not official NWS values.
T = Trace of Precipitation, MM = Missing Value Source: NWS Daily Summary

Daily Weather History Graph

Daily Weather History Graph

Search for Another Location

Airport or City:

Trip Planner

Search our weather history database for the weather conditions in past years. The results will help you decide how hot, cold, wet, or windy it might be!

Date:

Astronomy

Jul. 09, 2013 Rise Set
Actual Time 5:50 AM EDT 8:38 PM EDT
Civil Twilight 5:19 AM EDT 9:10 PM EDT
Nautical Twilight 4:39 AM EDT 9:50 PM EDT
Astronomical Twilight 3:53 AM EDT 10:35 PM EDT
Moon 7:12 AM EDT (7/9) 9:15 PM EDT (7/9)
Length of Visible Light 15h 51m
Length of Day
14h 47m
New Moon, 2% of the Moon is Illuminated
Jul 9
New Moon
Jul 15
First Quarter
Jul 22
Full
Jul 29
Last Quarter
Aug 6
New

Hourly Weather History & Observations

Time (EDT) Temp. Heat Index Dew Point Humidity Pressure Visibility Wind Dir Wind Speed Gust Speed Precip Events Conditions
12:05 AM 71.6 °F - 69.8 °F 94% 30.12 in 10.0 mi South 3.5 mph - N/A   Clear
12:25 AM 71.6 °F - 69.8 °F 94% 30.12 in 10.0 mi Calm Calm - N/A   Clear
12:45 AM 71.6 °F - 69.8 °F 94% 30.12 in 10.0 mi Calm Calm - N/A   Scattered Clouds
1:05 AM 71.6 °F - 69.8 °F 94% 30.12 in 10.0 mi SSE 3.5 mph - N/A   Mostly Cloudy
1:25 AM 71.6 °F - 69.8 °F 94% 30.12 in 10.0 mi SSE 3.5 mph - N/A   Clear
1:45 AM 71.6 °F - 69.8 °F 94% 30.11 in 10.0 mi South 3.5 mph - N/A   Mostly Cloudy
2:05 AM 71.6 °F - 69.8 °F 94% 30.11 in 10.0 mi Calm Calm - N/A   Scattered Clouds
2:25 AM 71.6 °F - 69.8 °F 94% 30.11 in 10.0 mi SSE 3.5 mph - N/A   Clear
2:45 AM 69.8 °F - 69.8 °F 100% 30.10 in 10.0 mi SSE 3.5 mph - N/A   Clear
3:05 AM 69.8 °F - 69.8 °F 100% 30.10 in 10.0 mi South 3.5 mph - N/A   Clear
3:25 AM 69.8 °F - 69.8 °F 100% 30.11 in 10.0 mi Calm Calm - N/A   Clear
3:45 AM 69.8 °F - 69.8 °F 100% 30.11 in 10.0 mi Calm Calm - N/A   Clear
4:05 AM 69.8 °F - 69.8 °F 100% 30.11 in 10.0 mi Calm Calm - N/A   Clear
4:25 AM 69.8 °F - 69.8 °F 100% 30.11 in 10.0 mi SSE 3.5 mph - N/A   Clear
4:45 AM 69.8 °F - 69.8 °F 100% 30.10 in 10.0 mi SE 5.8 mph - N/A   Clear
5:05 AM 69.8 °F - 69.8 °F 100% 30.11 in 10.0 mi SE 4.6 mph - N/A   Clear
5:25 AM 69.8 °F - 69.8 °F 100% 30.11 in 10.0 mi Calm Calm - N/A   Clear
5:45 AM 69.8 °F - 69.8 °F 100% 30.12 in 7.0 mi Calm Calm - N/A   Clear
6:05 AM 69.8 °F - 69.8 °F 100% 30.12 in 7.0 mi Calm Calm - N/A   Clear
6:25 AM 69.8 °F - 69.8 °F 100% 30.12 in 7.0 mi SSE 3.5 mph - N/A   Scattered Clouds
6:45 AM 69.8 °F - 69.8 °F 100% 30.12 in 7.0 mi South 5.8 mph - N/A   Clear
6:47 AM 71.6 °F - 71.6 °F 100% 30.12 in 7.0 mi SSW 5.8 mph - N/A   Scattered Clouds
7:45 AM 73.4 °F - 69.8 °F 88% 30.13 in 10.0 mi SW 5.8 mph - N/A   Scattered Clouds
8:45 AM 73.4 °F - 71.6 °F 94% 30.13 in 10.0 mi South 5.8 mph - N/A   Mostly Cloudy
9:50 AM 75.2 °F - 71.6 °F 89% 30.14 in 10.0 mi WSW 6.9 mph - N/A   Overcast
10:50 AM 77.0 °F - 71.6 °F 83% 30.14 in 10.0 mi SSW 4.6 mph - N/A   Mostly Cloudy
11:50 AM 78.8 °F - 73.4 °F 83% 30.13 in 10.0 mi SSE 3.5 mph - N/A   Overcast
12:50 PM 80.6 °F 84.6 °F 71.6 °F 74% 30.14 in 10.0 mi WSW 8.1 mph - N/A   Overcast
1:50 PM 78.8 °F - 71.6 °F 78% 30.13 in 7.0 mi WNW 5.8 mph - N/A Rain Light Rain
2:59 PM 77.0 °F - 73.4 °F 89% 30.10 in 7.0 mi Calm Calm - N/A   Overcast
3:54 PM 78.8 °F - 71.6 °F 78% 30.09 in 10.0 mi South 4.6 mph - N/A   Mostly Cloudy
4:50 PM 82.4 °F 88.2 °F 73.4 °F 74% 30.07 in 10.0 mi SSW 8.1 mph - N/A   Scattered Clouds
6:57 PM 84.2 °F 90.9 °F 73.4 °F 70% 30.03 in 10.0 mi South 4.6 mph - N/A   Clear
7:45 PM 80.6 °F 85.4 °F 73.4 °F 79% 30.04 in 7.0 mi Calm Calm - N/A   Scattered Clouds
9:05 PM 77.0 °F - 73.4 °F 89% 30.05 in 10.0 mi Calm Calm - N/A   Scattered Clouds
9:25 PM 77.0 °F - 73.4 °F 89% 30.06 in 10.0 mi Calm Calm - N/A   Overcast
9:45 PM 77.0 °F - 73.4 °F 89% 30.07 in 10.0 mi SSE 3.5 mph - N/A   Mostly Cloudy
10:05 PM 77.0 °F - 73.4 °F 89% 30.07 in 10.0 mi SSE 3.5 mph - N/A   Scattered Clouds
10:25 PM 77.0 °F - 71.6 °F 83% 30.06 in 10.0 mi Calm Calm - N/A   Scattered Clouds
10:45 PM 75.2 °F - 71.6 °F 89% 30.06 in 10.0 mi South 4.6 mph - N/A   Scattered Clouds
11:05 PM 77.0 °F - 71.6 °F 83% 30.05 in 10.0 mi South 3.5 mph - N/A   Mostly Cloudy
11:30 PM 77.0 °F - 71.6 °F 83% 30.05 in 10.0 mi Calm Calm - N/A   Overcast
11:50 PM 75.2 °F - 71.6 °F 89% 30.05 in 10.0 mi South 4.6 mph - N/A   Overcast